Home   Weather   Ålesund   Past weeks

Flag for Norway Past Weather in Ålesund, Norway — Yesterday and Last 2 Weeks

Now
45 °F

Partly cloudy.


Feels Like: 37 °F
Forecast: 39 / 42 °F
Wind: 20 mph from Southwest

Location: Alesund / Vigra

Current Time: Jan 22, 2017 at 5:32:45 pm

Latest Report: Jan 22, 2017 at 4:50 pm


Visibility: N/A

Pressure: 30.07 "Hg

Humidity: 76%

Dew Point: 37 °F

Location of ÅlesundLocation

Past Weather in Ålesund — Graph

°F

Ålesund Temperature Yesterday

Maximum temperature yesterday: 46 °F (at 12:20 am)
Minimum temperature yesterday: 43 °F (at 9:20 pm)
Average temperature yesterday: 45 °F

High & Low Weather Summary for the Past Weeks

 TemperatureHumidityPressure
High50 °F (Jan 9, 9:20 pm)100% (Jan 8, 10:50 am)30.39 "Hg (Jan 8, 10:50 am)
Low27 °F (Jan 15, 4:20 am)48% (Jan 16, 4:20 pm)28.56 "Hg (Jan 12, 4:50 am)
Average41 °F82%29.76 "Hg
* Reported Jan 7 4:20 pm — Jan 22 4:20 pm, Ålesund, Weather by CustomWeather, © 2017

Note: Actual official high and low records may vary slightly from our data, if they occured in-between our weather recording intervals... More about our weather records

Advertising

Ålesund Weather History for the Previous 24 Hours

Scroll right to see more
 ConditionsComfort  
Time TempWeatherWind HumidityBarometerVisibility
4:20 pm
Sun, Jan 22
45 °FPartly cloudy.15 mph76%30.07 "HgN/A
3:50 pm45 °FDrizzle. Broken clouds.18 mph76%30.07 "HgN/A
3:20 pm45 °FPartly sunny.16 mph76%30.09 "HgN/A
2:50 pm45 °FPartly sunny.18 mph81%30.09 "HgN/A
2:20 pm45 °FPartly sunny.20 mph76%30.09 "HgN/A
1:50 pm45 °FBroken clouds.17 mph81%30.09 "HgN/A
1:20 pm45 °FPartly sunny.22 mph81%30.09 "HgN/A
12:50 pm45 °FPartly sunny.16 mph76%30.09 "HgN/A
12:20 pm45 °FLight rain. Broken clouds.18 mph76%30.12 "HgN/A
11:50 am45 °FBroken clouds.16 mph76%30.12 "HgN/A
11:20 am45 °FPartly sunny.15 mph76%30.12 "HgN/A
10:50 am45 °FPartly sunny.21 mph76%30.12 "HgN/A
10:20 am46 °FPartly sunny.18 mph71%30.12 "HgN/A
9:50 am46 °FPartly sunny.18 mph71%30.12 "HgN/A
9:20 am45 °FPartly cloudy.14 mph76%30.12 "HgN/A
8:50 am45 °FPartly cloudy.16 mph81%30.12 "HgN/A
8:20 am45 °FPassing clouds.20 mph81%30.15 "HgN/A
7:50 am45 °FPassing clouds.17 mph76%30.15 "HgN/A
7:20 am45 °FPassing clouds.21 mph76%30.15 "HgN/A
6:50 am46 °FPassing clouds.20 mph71%30.15 "HgN/A
6:20 am45 °FOvercast.20 mph76%30.15 "HgN/A
5:50 am45 °FOvercast.20 mph76%30.15 "HgN/A
5:20 am45 °FOvercast.21 mph76%30.15 "HgN/A
4:50 am45 °FOvercast.17 mph76%30.15 "HgN/A
4:20 am45 °FOvercast.15 mph76%30.18 "HgN/A
3:50 am45 °FOvercast.15 mph76%30.18 "HgN/A
3:20 am45 °FOvercast.18 mph76%30.18 "HgN/A
2:50 am45 °FPassing clouds.22 mph76%30.18 "HgN/A
2:20 am45 °FPassing clouds.21 mph76%30.21 "HgN/A
1:50 am45 °FPassing clouds.17 mph76%30.21 "HgN/A
1:20 am45 °FQuite cool.22 mph76%30.21 "HgN/A
12:50 am43 °FQuite cool.21 mph87%30.21 "HgN/A
12:20 am45 °FQuite cool.20 mph81%30.21 "HgN/A
11:50 pm
Sat, Jan 21
45 °FQuite cool.20 mph81%30.21 "HgN/A
11:20 pm45 °FQuite cool.14 mph81%30.21 "HgN/A
10:50 pm43 °FPassing clouds.13 mph93%30.21 "HgN/A
10:20 pm43 °FPassing clouds.12 mph93%30.21 "HgN/A
9:50 pm45 °FPassing clouds.6 mph87%30.21 "HgN/A
9:20 pm43 °FPassing clouds.7 mph81%30.21 "HgN/A
8:50 pm45 °FPassing clouds.6 mph81%30.24 "HgN/A
8:20 pm45 °FPassing clouds.12 mph76%30.24 "HgN/A
7:50 pm45 °FPassing clouds.10 mph81%30.24 "HgN/A
7:20 pm45 °FPassing clouds.6 mph81%30.24 "HgN/A
6:50 pm45 °FPassing clouds.12 mph81%30.24 "HgN/A
6:20 pm45 °FPassing clouds.10 mph81%30.27 "HgN/A
5:50 pm45 °FPassing clouds.7 mph87%30.27 "HgN/A
5:20 pm45 °FPassing clouds.7 mph87%30.27 "HgN/A
Weather by CustomWeather, © 2017

See weather overviewHow to use our weather pages